Terminal Aerodrome Forecast
Issued by NWS

Home | Current Version | Previous Version | Text Only | Print | Product List | Glossary On
Versions: 1 2 3 4 5 6 7 8 9 10 11 12 13 14 15 16 17 18 19
000
FTPA31 PHFO 240535
TAFHNY
TAF
PHNY 240535Z 2406/2506 06008KT P6SM FEW025 SCT080
     FM242100 25008KT P6SM BKN035
     FM250400 VRB05KT P6SM BKN025=

USA.gov is the U.S. government's official web portal to all federal, state and local government web resources and services.